This is the latest recevied weather packets stored in our database for station/object OE1HTB-13. If no packets are shown the sender has not sent any weather packets the latest 10 day(s).
| Time | Temp. | Humidity | Pressure | Rain* | Wind** | Luminosity | Snow |
|---|---|---|---|---|---|---|---|
| 1777833970 | 18.89° C | 43% | 1014.3 hPa | 0 mm | - | 0 W/m² | - |
| 1777833070 | 18.89° C | 43% | 1014.2 hPa | 0 mm | - | 0 W/m² | - |
| 1777832170 | 19.44° C | 42% | 1014.1 hPa | 0 mm | - | 0 W/m² | - |
| 1777831275 | 20° C | 41% | 1014 hPa | 0 mm | - | 0 W/m² | - |
| 1777830375 | 20° C | 40% | 1013.9 hPa | 0 mm | - | 11 W/m² | - |
| 1777829475 | 20.56° C | 39% | 1013.9 hPa | 0 mm | - | 14 W/m² | - |
| 1777828575 | 20.56° C | 39% | 1013.8 hPa | 0 mm | - | 18 W/m² | - |
| 1777827675 | 21.11° C | 38% | 1013.8 hPa | 0 mm | - | 19 W/m² | - |
| 1777826774 | 21.11° C | 38% | 1013.9 hPa | 0 mm | - | 23 W/m² | - |
| 1777825874 | 21.67° C | 38% | 1013.9 hPa | 0 mm | - | 25 W/m² | - |
| 1777824974 | 21.67° C | 37% | 1013.9 hPa | 0 mm | - | 26 W/m² | - |
| 1777824074 | 22.22° C | 36% | 1013.9 hPa | 0 mm | - | 32 W/m² | - |
| 1777823174 | 22.22° C | 36% | 1014.1 hPa | 0 mm | - | 35 W/m² | - |
| 1777822274 | 22.78° C | 36% | 1014.1 hPa | 0 mm | - | 37 W/m² | - |
| 1777821374 | 23.33° C | 35% | 1014.4 hPa | 0 mm | - | 40 W/m² | - |
| 1777820474 | 23.89° C | 34% | 1014.4 hPa | 0 mm | - | 452 W/m² | - |
| 1777819573 | 24.44° C | 33% | 1014.5 hPa | 0 mm | - | 494 W/m² | - |
| 1777818673 | 24.44° C | 33% | 1014.6 hPa | 0 mm | - | 533 W/m² | - |
| 1777817773 | 25° C | 33% | 1014.7 hPa | 0 mm | - | 571 W/m² | - |
| 1777816873 | 24.44° C | 33% | 1015 hPa | 0 mm | - | 608 W/m² | - |
| 1777815973 | 25.56° C | 33% | 1015 hPa | 0 mm | - | 642 W/m² | - |
| 1777815073 | 25° C | 33% | 1015 hPa | 0 mm | - | 673 W/m² | - |
| 1777814173 | 25.56° C | 34% | 1015.3 hPa | 0 mm | - | 701 W/m² | - |
| 1777813273 | 25° C | 33% | 1015.7 hPa | 0 mm | - | 729 W/m² | - |
| 1777812372 | 25° C | 35% | 1015.9 hPa | 0 mm | - | 749 W/m² | - |
* Rain latest hour (hover to see other rain measurements)
** Current wind speed in m/s (hover to see current wind gust speed)